Location: ??????
(55.7522°N, 37.6156°E)
Time: 17:52:36
(UTC+00:00)

Cosmos 220 Rocket - Pass Details

Date: 14 June 2025
Orbit: 545 x 581 km, 74.0° (Epoch: 12 July)

Event Time Altitude Azimuth Distance (km) Brightness Sun altitude
Rises 23:38:54 0° 331° (NNW) 2,756 7.9 -6.3°
Reaches altitude 10° 23:41:05 10° 329° (NNW) 1,862 6.9 -6.2°
Maximum altitude 23:45:14 75° 245° (WSW) 591 3.9 -5.9°
Drops below altitude 10° 23:49:23 10° 160° (SSE) 1,870 6.2 -5.6°
Sets 23:51:35 0° 159° (SSE) 2,770 7.0 -5.4°
